Location: T�bingen+AIT
(48.5342°N, 9.0700°E)
Time: 11:54:02
(UTC+01:00)

Daily predictions for brighter satellites

Satellite Brightness Start Highest point End
(mag) Time Altitude Azimuth Time Altitude Azimuth Time Altitude Azimuth
USA 215 3.9 16:56:58 10° ENE 17:03:02 43° N 17:09:05 10° WNW
Cosmos 2278 4.4 16:58:00 10° SW 17:03:32 54° WNW 17:09:07 10° NNE
CRYOSAT 2 4.5 16:59:22 10° S 17:04:14 86° W 17:09:10 10° N
Iridium 4 Rocket 4.1 16:59:11 10° N 17:05:08 79° W 17:10:57 10° S
SMAP 3.5 17:02:33 10° SE 17:06:52 39° ENE 17:11:13 10° N
Cosmos 2263 Rocket 2.2 17:01:39 10° NNW 17:07:20 63° ENE 17:12:57 10° SE
Okean 1-7 3.0 17:05:57 10° S 17:10:11 84° E 17:14:27 10° N
ERBS 4.2 17:09:35 10° S 17:11:50 17° SE 17:14:06 10° E
Cosmos 1727 Rocket 4.4 17:08:09 10° N 17:14:01 40° ENE 17:19:49 10° SE
METEOR-M 4.1 17:09:35 10° SSE 17:14:51 65° ENE 17:20:10 10° N
Cosmos 1666 3.5 17:15:13 10° N 17:18:42 31° ENE 17:22:10 10° SE
Cosmos 2322 Rocket 2.8 17:13:44 10° S 17:18:56 38° ESE 17:24:09 10° NE
YAOGAN 1 3.9 17:16:21 10° ESE 17:19:21 19° ENE 17:22:22 10° NNE
Cosmos 2084 4.2 17:22:02 10° NNW 17:25:35 29° NNE 17:29:04 10° E
SeaSat 1 2.6 17:21:03 10° SSE 17:25:58 80° WSW 17:30:56 10° NNW
Genesis I 3.3 17:21:59 10° SW 17:26:01 86° SE 17:30:02 11° NE
Cosmos 2278 Rocket 3.9 17:23:38 10° N 17:26:09 13° NNE 17:28:12 11° NE
Cosmos 1500 3.3 17:22:19 10° NNW 17:26:10 80° W 17:30:01 10° S
Meteor 1-27 Rocket 4.2 17:20:29 10° SSW 17:26:22 69° WNW 17:32:20 10° N
Cosmos 1339 Rocket 4.5 17:21:19 10° N 17:27:22 60° ENE 17:33:21 10° SSE
Cosmos 841 Rocket 4.1 17:23:07 10° NNW 17:28:16 61° WSW 17:33:21 10° S
Cosmos 1743 3.5 17:26:43 10° N 17:30:08 29° ENE 17:33:31 10° SE
Cosmos 1607 4.4 17:24:27 10° S 17:30:30 45° ESE 17:36:08 12° NE
Cosmos 1697 Rocket 3.8 17:25:42 10° WSW 17:30:58 39° NW 17:36:17 10° NNE
Okean 1 Rocket 4.0 17:27:49 10° NNE 17:31:36 27° ENE 17:35:21 10° SE
Cosmos 2360 Rocket 3.3 17:29:37 10° SSE 17:33:58 24° ESE 17:37:27 14° ENE
SAR-Lupe-2 3.5 17:33:33 10° NNE 17:37:09 66° ESE 17:40:43 10° S
Cosmos 1980 Rocket 2.8 17:31:48 10° SW 17:37:18 56° WNW 17:42:50 10° NNE
ALOS 2.2 17:33:25 10° SSE 17:38:05 77° ENE 17:42:45 10° N
CSL-04 Rocket 3.9 17:34:01 10° SE 17:39:03 46° ENE 17:44:12 10° N
Geosat 4.1 17:34:33 10° NE 17:39:33 62° ESE 17:44:31 10° SSW
Meteor 1-18 Rocket 4.5 17:34:22 10° SSE 17:39:39 46° E 17:44:56 10° NNE
Envisat 4.3 17:36:55 10° E 17:40:20 18° ENE 17:43:44 10° NNE
H-2A R/B 3.6 17:40:18 10° SE 17:43:40 28° ENE 17:47:03 10° N
Cosmos 540 Rocket 3.9 17:38:36 10° NNW 17:43:42 67° WSW 17:48:45 10° S
EO 1 Delta rocket 4.0 17:40:39 10° N 17:45:16 78° WNW 17:50:22 10° SSW
Meteor 1-28 Rocket 4.1 17:41:52 10° N 17:45:32 49° WNW 17:49:08 10° SSW
CSL-04 Debris 4.2 17:46:48 10° SE 17:52:04 55° ENE 17:57:20 10° N
Cosmos 1844 4.4 17:47:42 10° NNW 17:52:44 31° NE 17:57:15 12° ESE
SKYMED 2 4.4 17:52:51 18° NE 17:55:14 29° E 17:59:01 10° SSE
Cosmos 1300 Rocket 3.5 17:51:03 10° N 17:55:31 85° E 17:59:55 10° S
SL-8 Rocket 4.1 17:49:13 10° SSW 17:55:32 81° W 18:01:55 10° N
Cosmos 192 4.3 17:51:09 10° NNW 17:56:10 89° ENE 18:01:08 10° SSE
Cosmos 1975 2.8 17:54:29 10° N 17:58:33 61° ENE 18:02:32 10° SSE
NOAA 12 4.1 17:55:42 10° SE 18:00:50 55° ENE 18:05:59 10° N
Cosmos 2151 Rocket 4.0 17:59:57 10° NNW 18:04:27 66° W 18:08:54 10° S
ISS -0.8 18:06:38 10° W 18:08:44 16° SW 18:10:50 10° S
Cosmos 1356 Rocket 3.7 18:05:35 10° SSW 18:09:40 66° WNW 18:13:52 10° N
BREEZE M DEB (TANK) 3.7 18:07:30 10° W 18:10:00 45° SSW 18:15:59 10° SE
Cosmos 1486 Rocket 4.3 18:05:26 10° SSW 18:10:44 71° WNW 18:16:03 10° NNE
Lacrosse 5 2.9 18:06:41 10° WNW 18:11:13 32° N 18:13:13 24° NE
USA 116 4.3 18:09:56 25° NE 18:11:53 43° E 18:16:13 10° S
Cosmos 1674 Rocket 3.5 18:08:08 10° S 18:12:32 76° E 18:17:00 10° NNE
SL-16 R/B 2.2 18:07:05 10° SSW 18:12:45 83° WNW 18:17:38 15° NNE
Meteor 1-19 Rocket 4.3 18:10:17 10° S 18:15:35 52° E 18:20:41 11° NNE
Meteor 2-9 Rocket 4.2 18:10:09 10° N 18:15:51 58° ENE 18:21:22 10° SSE
CZ-4 R/B 4.3 18:12:45 10° SSE 18:16:51 69° ENE 18:20:59 10° N
CZ-4C R/B 3.8 18:11:29 10° NW 18:16:59 27° NNE 18:19:29 22° NE
Ariane Rocket 3.0 18:12:13 10° SSE 18:17:11 59° ENE 18:22:10 10° N
BREEZE-M DEB (TANK) 3.9 18:08:21 10° WNW 18:19:36 64° N 18:21:22 33° ENE
Cosmos 2366 rocket 4.3 18:16:24 10° SSW 18:22:31 67° WNW 18:28:42 10° N
Cosmos 1821 Rocket 4.2 18:17:28 10° SSE 18:23:36 52° E 18:29:47 10° NNE
ATLAS CENTAUR R/B 2.9 18:23:45 10° NW 18:24:10 15° NW 18:24:10 15° NW
Okean 1 3.7 18:22:24 10° SSW 18:26:25 65° W 18:30:22 11° N
Cosmos 968 Rocket 3.4 18:23:34 10° S 18:28:47 67° ESE 18:31:37 27° NE
Meteor 1-13 Rocket 4.4 18:24:21 10° SSE 18:29:34 46° E 18:32:07 28° NE
Meteor 2-17 Rocket 4.3 18:27:25 10° S 18:33:33 78° E 18:39:44 10° NNE
Timation 1 Rocket 4.4 18:27:54 10° NNW 18:33:55 81° WSW 18:39:52 10° SSE
CZ-4 R/B 1.8 18:30:04 10° S 18:34:16 66° WSW 18:38:28 10° NNW
Cosmos 773 Rocket 4.0 18:33:27 10° NNW 18:38:40 55° ENE 18:40:56 32° SE
Lacrosse 5 rocket 2.1 18:38:43 10° SSW 18:43:06 42° SE 18:43:11 42° SE
Cosmos 1844 Rocket 2.6 18:37:23 10° NNW 18:43:06 78° ENE 18:48:46 10° SSE
COSMO-SKYMED 1 2.4 18:41:25 32° NNE 18:43:26 87° E 18:47:47 10° SSW
USA 215 3.5 18:43:02 36° ENE 18:45:23 53° NNE 18:51:42 10° NW
ERBS 2.7 18:44:37 10° WSW 18:47:34 60° W 18:47:34 60° W
Cosmos 2219 Rocket 3.5 18:43:45 10° SSE 18:46:35 24° SE 18:46:35 24° SE
Cosmos 2123 Rocket 3.9 18:43:31 10° N 18:49:49 62° ENE 18:56:05 10° SSE
Cosmos 909 Rocket 4.5 18:46:44 10° S 18:52:33 41° ESE 18:52:55 40° ESE
COSMOS 2428 3.4 18:49:40 10° S 18:53:53 36° SE 18:53:53 36° SE
YAOGAN 1 3.2 18:50:49 10° S 18:55:04 56° W 18:59:21 10° NNW
Cosmos 1975 Rocket 3.7 18:51:19 10° S 18:54:19 41° SSE 18:54:19 41° SSE
Cosmos 1538 Rocket 3.9 18:51:37 10° NNW 18:57:02 72° ENE 18:58:43 44° SE
Meteor 2-4 Rocket 3.5 18:52:17 10° S 18:57:56 80° E 19:00:33 33° NNE
Meteor 1-15 Rocket 4.3 18:55:03 10° N 19:00:49 58° ENE 19:01:25 55° E
Cosmos 2322 Rocket 3.2 18:57:34 10° WSW 19:02:57 42° NW 19:06:29 20° N
DMSP B5D1-3 4.4 19:03:56 69° ESE 19:03:56 69° ESE 19:09:01 10° S
Cosmos 2084 4.1 19:01:24 10° NW 19:05:15 47° SW 19:05:53 42° SSW
FengYun 1-2 T 4.3 19:02:29 10° S 19:08:01 75° WSW 19:13:38 10° NNW
Alouette 2 Rocket 3.8 19:04:49 10° NNW 19:10:28 80° W 19:11:07 63° S
Cosmos 724 4.2 19:05:16 10° SSW 19:11:10 66° ESE 19:11:28 65° ESE
Cosmos 2278 Rocket 3.1 19:06:22 10° NNW 19:10:04 35° N 19:10:04 35° N
Cosmos 2333 4.2 19:09:56 10° SSW 19:14:52 60° SSE 19:14:52 60° SSE
Cosmos 2360 Rocket 2.5 19:11:56 10° SW 19:17:31 63° WNW 19:19:15 43° N
NOSS 2-1 (C) 4.4 19:12:10 10° NW 19:17:42 85° NE 19:19:20 55° SE
Envisat 3.0 19:13:42 10° S 19:18:46 77° WSW 19:23:53 10° NNW
NOSS 2-1 (D) 4.4 19:14:07 10° NW 19:19:41 88° NE 19:21:19 55° SE
Cosmos 2333 Rocket 3.5 19:14:25 10° S 19:17:02 26° SSE 19:17:02 26° SSE
Cosmos 1932 4.4 19:14:32 10° SW 19:20:47 81° NW 19:21:57 61° NNE
Cosmos 1934 Rocket 3.9 19:16:27 10° S 19:22:41 87° W 19:25:31 35° N
Cosmos 1605 Rocket 4.4 19:30:15 10° S 19:34:39 50° S 19:34:39 50° S
Cosmos 1844 4.3 19:31:39 10° NW 19:37:11 55° WSW 19:39:17 35° SSW
Cosmos 2322 4.3 19:43:49 10° SW 19:49:19 54° WNW 19:49:19 54° WNW
Lacrosse 5 3.6 19:50:03 10° NW 19:52:26 27° NW 19:52:26 27° NW
SL-16 R/B 4.3 19:53:39 10° W 19:57:46 20° NW 19:59:32 18° NNW
CZ-4C R/B 3.5 20:00:01 10° NW 20:04:41 44° NNW 20:04:41 44° NNW
Lacrosse 5 rocket 4.3 20:17:47 10° WSW 20:18:53 17° W 20:18:53 17° W
USA 215 4.0 20:30:23 46° WNW 20:30:23 46° WNW 20:34:49 10° WNW
Cosmos 2219 Rocket 4.3 20:26:40 10° SW 20:28:22 20° SW 20:28:22 20° SW
